| time (UTC) | temp F | wind direction | speed knots | gust knots | rain 1hr in | rain 24hr in | rain mn in | humidity % | barometer mb |
| 20260504100531 | 49 | 65 | 0.0 | 0.0 | 0.00 | 0.00 | 0.00 | 75 | 1014.9 |
| 20260504081538 | 47 | 38 | 0.0 | 0.0 | 0.00 | 0.00 | 0.00 | 76 | 1015.3 |
| 20260504081055 | 47 | 38 | 0.0 | 0.0 | 0.00 | 0.00 | 0.00 | 76 | 1015.4 |
| 20260504080542 | 47 | 38 | 0.0 | 0.0 | 0.00 | 0.00 | 0.00 | 75 | 1015.5 |
| 20260504050533 | 45 | 62 | 0.0 | 0.0 | 0.00 | 0.00 | 0.00 | 71 | 1015.8 |
| 20260504045517 | 46 | 62 | 0.0 | 0.0 | 0.00 | 0.00 | 0.00 | 69 | 1015.7 |
| 20260504045055 | 46 | 62 | 0.0 | 0.0 | 0.00 | 0.00 | 0.00 | 69 | 1015.7 |
| 20260504044519 | 46 | 63 | 0.0 | 0.0 | 0.00 | 0.00 | 0.00 | 67 | 1015.7 |
| 20260504044051 | 47 | 62 | 0.0 | 0.0 | 0.00 | 0.00 | 0.00 | 66 | 1015.6 |
| 20260504043537 | 47 | 62 | 0.0 | 0.0 | 0.00 | 0.00 | 0.00 | 66 | 1015.7 |
| 20260504043009 | 47 | 62 | 0.0 | 0.0 | 0.00 | 0.00 | 0.00 | 67 | 1015.7 |
| 20260504042532 | 47 | 62 | 0.0 | 0.0 | 0.00 | 0.00 | 0.00 | 65 | 1015.7 |
| 20260504042051 | 47 | 62 | 0.0 | 0.0 | 0.00 | 0.00 | 0.00 | 65 | 1015.7 |
| 20260504041533 | 48 | 62 | 0.0 | 0.0 | 0.00 | 0.00 | 0.00 | 64 | 1015.7 |
| 20260504041053 | 48 | 62 | 0.0 | 0.0 | 0.00 | 0.00 | 0.00 | 65 | 1015.7 |
| 20260504040516 | 48 | 67 | 0.0 | 0.0 | 0.00 | 0.00 | 0.00 | 65 | 1015.6 |
| 20260504040051 | 47 | 77 | 0.0 | 0.0 | 0.00 | 0.00 | 0.00 | 66 | 1015.7 |
| 20260504035532 | 46 | 10 | 0.0 | 0.0 | 0.00 | 0.00 | 0.00 | 68 | 1015.7 |
| 20260504035049 | 46 | 68 | 0.0 | 0.0 | 0.00 | 0.00 | 0.00 | 69 | 1015.6 |
| 20260504034518 | 45 | 33 | 0.0 | 0.0 | 0.00 | 0.00 | 0.00 | 71 | 1015.6 |
| 20260504034049 | 45 | 33 | 0.0 | 0.0 | 0.00 | 0.00 | 0.00 | 71 | 1015.6 |
| 20260504033515 | 45 | 33 | 0.0 | 0.0 | 0.00 | 0.00 | 0.00 | 71 | 1015.5 |
| 20260504033059 | 44 | 22 | 0.0 | 0.0 | 0.00 | 0.00 | 0.00 | 73 | 1015.4 |
| 20260504032517 | 44 | 22 | 0.0 | 0.0 | 0.00 | 0.00 | 0.00 | 74 | 1015.4 |
| 20260504032039 | 43 | 22 | 0.0 | 0.0 | 0.00 | 0.00 | 0.00 | 75 | 1015.4 |
| 20260504031523 | 43 | 22 | 0.0 | 0.0 | 0.00 | 0.00 | 0.00 | 78 | 1015.3 |
| 20260504031101 | 43 | 22 | 0.0 | 0.0 | 0.00 | 0.00 | 0.00 | 77 | 1015.2 |
| 20260504030523 | 43 | 22 | 0.0 | 0.0 | 0.00 | 0.00 | 0.00 | 77 | 1015.2 |
| 20260504030115 | 43 | 22 | 0.0 | 0.0 | 0.00 | 0.00 | 0.00 | 75 | 1015.2 |
| 20260504030001 | 43 | 22 | 0.0 | 0.0 | 0.00 | 0.00 | 0.00 | 75 | 1015.2 |
| 20260504025529 | 43 | 22 | 0.0 | 0.0 | 0.00 | 0.00 | 0.00 | 74 | 1015.1 |
| 20260504025045 | 43 | 22 | 0.0 | 0.0 | 0.00 | 0.00 | 0.00 | 74 | 1015.1 |
| 20260504024512 | 43 | 22 | 0.0 | 0.0 | 0.00 | 0.00 | 0.00 | 74 | 1015.1 |
| 20260504024051 | 43 | 22 | 0.0 | 0.0 | 0.00 | 0.00 | 0.00 | 75 | 1015.1 |
| 20260504023515 | 43 | 23 | 0.0 | 0.0 | 0.00 | 0.00 | 0.00 | 74 | 1015.1 |
| 20260504023051 | 44 | 22 | 0.0 | 0.0 | 0.00 | 0.00 | 0.00 | 74 | 1015.1 |
| 20260504022516 | 44 | 23 | 0.0 | 0.0 | 0.00 | 0.00 | 0.00 | 74 | 1015.1 |
| 20260504022035 | 44 | 22 | 0.0 | 0.0 | 0.00 | 0.00 | 0.00 | 72 | 1015.1 |
| 20260504021519 | 44 | 22 | 0.0 | 0.0 | 0.00 | 0.00 | 0.00 | 71 | 1015.1 |
| 20260504021054 | 44 | 22 | 0.0 | 0.0 | 0.00 | 0.00 | 0.00 | 72 | 1015.1 |
| 20260504020537 | 44 | 22 | 0.0 | 0.0 | 0.00 | 0.00 | 0.00 | 71 | 1015.1 |
| 20260504020015 | 44 | 22 | 0.0 | 0.0 | 0.00 | 0.00 | 0.00 | 71 | 1015.1 |
| 20260504015539 | 44 | 22 | 0.0 | 0.0 | 0.00 | 0.00 | 0.00 | 73 | 1015.0 |
| 20260504015057 | 44 | 22 | 0.0 | 0.0 | 0.00 | 0.00 | 0.00 | 72 | 1014.9 |
| 20260504015001 | 44 | 22 | 0.0 | 0.0 | 0.00 | 0.00 | 0.00 | 72 | 1014.9 |
| 20260504014544 | 44 | 22 | 0.0 | 0.0 | 0.00 | 0.00 | 0.00 | 72 | 1014.9 |
| 20260504014013 | 45 | 23 | 0.0 | 0.0 | 0.00 | 0.00 | 0.00 | 72 | 1014.9 |
| 20260504013545 | 45 | 22 | 0.0 | 0.0 | 0.00 | 0.00 | 0.00 | 72 | 1015.0 |
| 20260504013009 | 45 | 22 | 0.0 | 0.0 | 0.00 | 0.00 | 0.00 | 71 | 1014.9 |
| 20260504012531 | 45 | 22 | 0.0 | 0.0 | 0.00 | 0.00 | 0.00 | 70 | 1014.9 |
| 20260504012015 | 45 | 22 | 0.0 | 0.0 | 0.00 | 0.00 | 0.00 | 69 | 1014.8 |
| 20260504011535 | 46 | 22 | 0.0 | 0.0 | 0.00 | 0.00 | 0.00 | 69 | 1014.8 |
| 20260504011016 | 46 | 22 | 0.0 | 0.0 | 0.00 | 0.00 | 0.00 | 67 | 1014.8 |
| 20260504010538 | 46 | 22 | 0.0 | 0.0 | 0.00 | 0.00 | 0.00 | 67 | 1014.7 |
| 20260504010057 | 47 | 22 | 0.0 | 0.0 | 0.00 | 0.00 | 0.00 | 67 | 1014.7 |
| 20260504005540 | 47 | 22 | 0.0 | 0.0 | 0.00 | 0.00 | 0.00 | 67 | 1014.8 |
| 20260504005057 | 47 | 23 | 0.0 | 0.0 | 0.00 | 0.00 | 0.00 | 65 | 1014.7 |
| 20260504004537 | 48 | 22 | 0.0 | 0.0 | 0.00 | 0.00 | 0.00 | 62 | 1014.6 |
| 20260504004021 | 48 | 22 | 0.0 | 0.0 | 0.00 | 0.00 | 0.00 | 62 | 1014.5 |
| 20260504003544 | 48 | 22 | 0.0 | 0.0 | 0.00 | 0.00 | 0.00 | 62 | 1014.5 |
| 20260504003036 | 49 | 22 | 0.0 | 0.0 | 0.00 | 0.00 | 0.00 | 62 | 1014.5 |
| 20260504002505 | 49 | 22 | 0.0 | 0.0 | 0.00 | 0.00 | 0.00 | 61 | 1014.4 |
| 20260504002031 | 50 | 22 | 0.0 | 0.0 | 0.00 | 0.00 | 0.00 | 60 | 1014.4 |
| 20260504001551 | 51 | 22 | 0.0 | 0.0 | 0.00 | 0.00 | 0.00 | 60 | 1014.4 |
| 20260504001033 | 51 | 22 | 0.0 | 0.0 | 0.00 | 0.00 | 0.00 | 58 | 1014.3 |
| 20260504000550 | 52 | 22 | 0.0 | 0.0 | 0.00 | 0.00 | 0.00 | 56 | 1014.3 |
| 20260504000015 | 53 | 22 | 0.0 | 0.0 | 0.00 | 0.00 | 0.00 | 53 | 1014.2 |
| 20260503235553 | 53 | 22 | 0.0 | 0.0 | 0.00 | 0.00 | 0.00 | 52 | 1014.2 |
| 20260503235019 | 54 | 22 | 0.0 | 0.0 | 0.00 | 0.00 | 0.00 | 51 | 1014.2 |
| 20260503234555 | 55 | 23 | 0.0 | 0.0 | 0.00 | 0.00 | 0.00 | 50 | 1014.1 |
| 20260503234029 | 56 | 22 | 0.0 | 0.0 | 0.00 | 0.00 | 0.00 | 49 | 1014.1 |
| 20260503233550 | 57 | 22 | 0.0 | 0.0 | 0.00 | 0.00 | 0.00 | 48 | 1014.1 |
| 20260503233015 | 57 | 17 | 0.0 | 0.0 | 0.00 | 0.00 | 0.00 | 46 | 1014.0 |
| 20260503232555 | 58 | 16 | 0.0 | 0.0 | 0.00 | 0.00 | 0.00 | 45 | 1014.0 |
| 20260503232021 | 58 | 175 | 0.0 | 0.0 | 0.00 | 0.00 | 0.00 | 45 | 1013.8 |
| 20260503231557 | 58 | 184 | 0.0 | 0.0 | 0.00 | 0.00 | 0.00 | 45 | 1013.8 |
| 20260503231031 | 59 | 129 | 0.0 | 0.0 | 0.00 | 0.00 | 0.00 | 44 | 1013.7 |
| 20260503230547 | 59 | 129 | 0.0 | 0.0 | 0.00 | 0.00 | 0.00 | 43 | 1013.8 |
| 20260503230031 | 59 | 129 | 0.0 | 0.9 | 0.00 | 0.00 | 0.00 | 42 | 1013.8 |
| 20260503225550 | 59 | 19 | 0.0 | 0.9 | 0.00 | 0.00 | 0.00 | 42 | 1013.8 |
| 20260503225031 | 59 | 62 | 0.0 | 0.0 | 0.00 | 0.00 | 0.00 | 41 | 1013.9 |
| 20260503224524 | 60 | 98 | 0.0 | 0.9 | 0.00 | 0.00 | 0.00 | 41 | 1013.9 |
| 20260503224035 | 60 | 101 | 0.0 | 0.9 | 0.00 | 0.00 | 0.00 | 41 | 1014.0 |
| 20260503223516 | 60 | 63 | 0.0 | 0.9 | 0.00 | 0.00 | 0.00 | 41 | 1013.9 |
| 20260503223037 | 60 | 41 | 0.0 | 0.9 | 0.00 | 0.00 | 0.00 | 40 | 1014.0 |
| 20260503222508 | 60 | 59 | 0.0 | 0.9 | 0.00 | 0.00 | 0.00 | 41 | 1014.0 |
| 20260503222042 | 60 | 41 | 0.0 | 7.0 | 0.00 | 0.00 | 0.00 | 41 | 1013.9 |
| 20260503221511 | 60 | 155 | 0.0 | 7.0 | 0.00 | 0.00 | 0.00 | 41 | 1013.9 |
| 20260503221056 | 60 | 120 | 0.0 | 2.6 | 0.00 | 0.00 | 0.00 | 40 | 1014.0 |
| 20260503220513 | 60 | 101 | 0.0 | 7.8 | 0.00 | 0.00 | 0.00 | 40 | 1014.0 |
| 20260503220035 | 60 | 25 | 0.9 | 7.8 | 0.00 | 0.00 | 0.00 | 39 | 1013.9 |
| 20260503215517 | 60 | 120 | 0.0 | 0.9 | 0.00 | 0.00 | 0.00 | 40 | 1014.1 |
| 20260503215038 | 60 | 56 | 0.0 | 1.7 | 0.00 | 0.00 | 0.00 | 40 | 1014.1 |
| 20260503214518 | 60 | 188 | 0.0 | 6.1 | 0.00 | 0.00 | 0.00 | 40 | 1014.1 |
| 20260503214044 | 60 | 131 | 0.0 | 6.1 | 0.00 | 0.00 | 0.00 | 39 | 1014.1 |
| 20260503213515 | 60 | 95 | 0.0 | 4.3 | 0.00 | 0.00 | 0.00 | 41 | 1014.0 |
| 20260503213051 | 60 | 127 | 0.0 | 1.7 | 0.00 | 0.00 | 0.00 | 39 | 1014.1 |
| 20260503212517 | 61 | 122 | 0.0 | 11.3 | 0.00 | 0.00 | 0.00 | 40 | 1014.0 |
| 20260503212054 | 61 | 30 | 0.9 | 11.3 | 0.00 | 0.00 | 0.00 | 39 | 1013.9 |
| 20260503211518 | 61 | 69 | 0.0 | 0.9 | 0.00 | 0.00 | 0.00 | 40 | 1013.8 |
| 20260503211038 | 61 | 27 | 0.0 | 0.9 | 0.00 | 0.00 | 0.00 | 40 | 1013.9 |
| 20260503210516 | 61 | 108 | 0.0 | 0.9 | 0.00 | 0.00 | 0.00 | 40 | 1014.0 |
| 20260503210039 | 61 | 100 | 0.0 | 0.9 | 0.00 | 0.00 | 0.00 | 41 | 1014.0 |
| 20260503205519 | 61 | 123 | 0.0 | 3.5 | 0.00 | 0.00 | 0.00 | 40 | 1014.1 |
| 20260503205042 | 61 | 115 | 0.0 | 3.5 | 0.00 | 0.00 | 0.00 | 40 | 1014.0 |
| 20260503204521 | 61 | 67 | 0.0 | 6.1 | 0.00 | 0.00 | 0.00 | 41 | 1014.1 |
| 20260503204044 | 61 | 171 | 0.0 | 1.7 | 0.00 | 0.00 | 0.00 | 40 | 1014.0 |
| 20260503203534 | 61 | 96 | 0.0 | 1.7 | 0.00 | 0.00 | 0.00 | 39 | 1014.1 |
| 20260503203050 | 62 | 122 | 0.0 | 6.1 | 0.00 | 0.00 | 0.00 | 40 | 1014.2 |
| 20260503202525 | 61 | 68 | 0.0 | 6.1 | 0.00 | 0.00 | 0.00 | 40 | 1014.2 |
| 20260503202006 | 62 | 141 | 0.0 | 4.3 | 0.00 | 0.00 | 0.00 | 41 | 1014.4 |
| 20260503201531 | 62 | 321 | 0.0 | 4.3 | 0.00 | 0.00 | 0.00 | 41 | 1014.3 |
| 20260503201016 | 62 | 44 | 0.0 | 2.6 | 0.00 | 0.00 | 0.00 | 41 | 1014.3 |
| 20260503200534 | 61 | 77 | 0.0 | 7.0 | 0.00 | 0.00 | 0.00 | 43 | 1014.3 |
| 20260503200057 | 60 | 107 | 0.0 | 7.0 | 0.00 | 0.00 | 0.00 | 43 | 1014.5 |
| 20260503195540 | 60 | 133 | 0.0 | 5.2 | 0.00 | 0.00 | 0.00 | 42 | 1014.5 |
| 20260503195100 | 60 | 255 | 0.0 | 1.7 | 0.00 | 0.00 | 0.00 | 42 | 1014.6 |
| 20260503195010 | 60 | 220 | 0.0 | 1.7 | 0.00 | 0.00 | 0.00 | 42 | 1014.7 |
| 20260503194541 | 61 | 53 | 0.0 | 3.5 | 0.00 | 0.00 | 0.00 | 44 | 1014.7 |
| 20260503194100 | 60 | 131 | 0.0 | 12.2 | 0.00 | 0.00 | 0.00 | 43 | 1014.8 |
| 20260503194009 | 61 | 74 | 0.0 | 12.2 | 0.00 | 0.00 | 0.00 | 42 | 1014.9 |
| 20260503193543 | 60 | 51 | 0.9 | 12.2 | 0.00 | 0.00 | 0.00 | 43 | 1014.7 |
| 20260503193104 | 60 | 207 | 0.0 | 6.1 | 0.00 | 0.00 | 0.00 | 44 | 1014.9 |
| 20260503193008 | 60 | 160 | 0.0 | 6.1 | 0.00 | 0.00 | 0.00 | 43 | 1015.0 |
| 20260503192544 | 60 | 200 | 0.0 | 6.1 | 0.00 | 0.00 | 0.00 | 44 | 1015.0 |
| 20260503192006 | 60 | 95 | 0.0 | 0.9 | 0.00 | 0.00 | 0.00 | 44 | 1015.0 |
| 20260503191544 | 60 | 107 | 0.0 | 0.0 | 0.00 | 0.00 | 0.00 | 44 | 1015.1 |
| 20260503191006 | 59 | 224 | 0.0 | 6.1 | 0.00 | 0.00 | 0.00 | 45 | 1015.1 |
| 20260503190547 | 59 | 111 | 0.9 | 6.1 | 0.00 | 0.00 | 0.00 | 44 | 1015.1 |
| 20260503190028 | 59 | 63 | 0.0 | 4.3 | 0.00 | 0.00 | 0.00 | 47 | 1015.1 |
| 20260503185600 | 58 | 97 | 0.0 | 4.3 | 0.00 | 0.00 | 0.00 | 44 | 1015.2 |
| 20260503185502 | 58 | 171 | 0.0 | 4.3 | 0.00 | 0.00 | 0.00 | 45 | 1015.2 |
| 20260503185047 | 58 | 13 | 0.0 | 4.3 | 0.00 | 0.00 | 0.00 | 45 | 1015.4 |
| 20260503184619 | 58 | 203 | 0.0 | 8.7 | 0.00 | 0.00 | 0.00 | 44 | 1015.4 |
| 20260503184506 | 58 | 90 | 0.0 | 8.7 | 0.00 | 0.00 | 0.00 | 45 | 1015.4 |
| 20260503184043 | 58 | 229 | 0.0 | 2.6 | 0.00 | 0.00 | 0.00 | 47 | 1015.6 |
| 20260503183525 | 58 | 127 | 0.0 | 4.3 | 0.00 | 0.00 | 0.00 | 46 | 1015.5 |
| 20260503183051 | 59 | 105 | 0.0 | 11.3 | 0.00 | 0.00 | 0.00 | 45 | 1015.6 |
| 20260503182533 | 58 | 106 | 1.7 | 11.3 | 0.00 | 0.00 | 0.00 | 47 | 1015.7 |
| 20260503182050 | 58 | 105 | 1.7 | 7.0 | 0.00 | 0.00 | 0.00 | 47 | 1015.6 |
| 20260503181516 | 58 | 131 | 0.0 | 6.1 | 0.00 | 0.00 | 0.00 | 46 | 1015.5 |
| 20260503181052 | 58 | 212 | 0.9 | 6.1 | 0.00 | 0.00 | 0.00 | 47 | 1015.6 |
| 20260503180513 | 58 | 137 | 0.0 | 7.8 | 0.00 | 0.00 | 0.00 | 48 | 1015.7 |
| 20260503180040 | 57 | 175 | 0.0 | 12.2 | 0.00 | 0.00 | 0.00 | 47 | 1015.8 |
| 20260503175521 | 57 | 163 | 1.7 | 12.2 | 0.00 | 0.00 | 0.00 | 47 | 1015.9 |
| 20260503175042 | 57 | 118 | 0.0 | 7.8 | 0.00 | 0.00 | 0.00 | 47 | 1015.9 |
| 20260503174602 | 56 | 141 | 0.0 | 7.8 | 0.00 | 0.00 | 0.00 | 48 | 1015.8 |
| 20260503174508 | 56 | 238 | 0.0 | 7.8 | 0.00 | 0.00 | 0.00 | 48 | 1016.0 |
| 20260503174044 | 57 | 206 | 0.0 | 3.5 | 0.00 | 0.00 | 0.00 | 48 | 1016.0 |
| 20260503173600 | 57 | 108 | 0.0 | 3.5 | 0.00 | 0.00 | 0.00 | 50 | 1016.1 |
| 20260503173502 | 57 | 118 | 0.0 | 3.5 | 0.00 | 0.00 | 0.00 | 50 | 1016.1 |
| 20260503173033 | 56 | 223 | 0.0 | 6.1 | 0.00 | 0.00 | 0.00 | 49 | 1016.0 |
| 20260503172504 | 56 | 229 | 0.9 | 6.1 | 0.00 | 0.00 | 0.00 | 49 | 1016.2 |
| 20260503172028 | 56 | 117 | 0.0 | 6.1 | 0.00 | 0.00 | 0.00 | 48 | 1016.1 |
| 20260503171607 | 56 | 53 | 0.0 | 6.1 | 0.00 | 0.00 | 0.00 | 50 | 1016.1 |
| 20260503171030 | 56 | 233 | 0.0 | 1.7 | 0.00 | 0.00 | 0.00 | 52 | 1016.2 |
| 20260503170554 | 56 | 297 | 0.0 | 2.6 | 0.00 | 0.00 | 0.00 | 50 | 1016.1 |
| 20260503151001 | 52 | 173 | 0.0 | 9.6 | 0.00 | 0.00 | 0.00 | 51 | 1016.8 |
| 20260503150542 | 52 | 219 | 0.0 | 7.0 | 0.00 | 0.00 | 0.00 | 52 | 1016.9 |
| 20260503131018 | 47 | 37 | 0.0 | 4.3 | 0.00 | 0.00 | 0.00 | 63 | 1017.0 |
| 20260503130539 | 47 | 226 | 0.0 | 3.5 | 0.00 | 0.00 | 0.00 | 66 | 1017.0 |
| 20260503110505 | 40 | 106 | 0.0 | 0.0 | 0.00 | 0.00 | 0.00 | 80 | 1016.0 |